Regional Weather Roundup
Issued by NWS

Home | Current Version | Previous Version | Graphics & Text | Print | Product List | Glossary On
Versions: 1 2 3 4 5 6 7 8 9 10 11 12 13 14 15 16 17 18 19 20 21 22 23 24 25 26 27
000
ASUS45 KCYS 281110
RWRWY

WYOMING REGIONAL WEATHER ROUNDUP
NATIONAL WEATHER SERVICE CHEYENNE WY
500 AM MDT SUN AUG 28 2016

NOTE:  "FAIR" INDICATES FEW OR NO CLOUDS BELOW 12,000 FEET
WITH NO SIGNIFICANT WEATHER AND/OR OBSTRUCTIONS TO VISIBILITY.

WYZ001-281200-
YELLOWSTONE NATIONAL PARK

CITY           SKY/WX    TMP DP  RH WIND       PRES   REMARKS
LK YELLOWSTONE   N/A     33  27  78 NW3       30.29R
W YELLOWSTONE  NOT AVBL

$$
WYZ002>013-054>058-071-098>099-281200-
NORTHERN WYOMING

CITY           SKY/WX    TMP DP  RH WIND       PRES   REMARKS
JACKSON        FAIR      36  27  69 N6        30.22R WCI  31
CODY           FAIR      66  27  22 W8        30.04S
GREYBULL       FAIR      51  35  54 CALM      29.99R
WORLAND        FAIR      45  32  60 S7        30.00R
SHERIDAN       FAIR      51  38  60 CALM      29.95R
BUFFALO        FAIR      63  26  24 W9        30.02R
GILLETTE       FAIR      53  36  52 CALM      29.98S
HULETT         FAIR      59  41  51 SW3       29.99S
NEWCASTLE      FAIR      54  43  66 CALM      30.01R

$$
WYZ014>020-022>026-101>103-281200-
CENTRAL WYOMING

CITY           SKY/WX    TMP DP  RH WIND       PRES   REMARKS
BIG PINEY      FAIR      37  27  67 CALM      30.27R
PINEDALE       FAIR      32  28  86 W6        30.28R WCI  26
DUBOIS         FAIR      45  21  39 W13       30.23S
LANDER         FAIR      60  29  30 W6        30.10R
RIVERTON       FAIR      54  29  38 W9        30.10S
CASPER         FAIR      59  34  39 SW6       30.09R
DOUGLAS        FAIR      46  38  73 CALM      30.08R

$$
WYZ021-027>030-104>119-281200-
SOUTHERN WYOMING

CITY           SKY/WX    TMP DP  RH WIND       PRES   REMARKS
EVANSTON       FAIR      50  23  34 S8        30.27R
FORT BRIDGER   SUNNY     59  21  23 W9        30.29R
ROCK SPRINGS   FAIR      56  21  25 CALM      30.24R
DIXON          FAIR      47  33  59 SE5       30.29S
RAWLINS        FAIR      51  33  50 SW8       30.24R
SARATOGA       FAIR      50  30  46 S10G21    30.28R
LARAMIE        FAIR      44  29  55 SE9       30.28R
CHEYENNE       FAIR      52  31  44 W8        30.20R
TORRINGTON     FAIR      51  49  92 SE6       30.06R
PINE BLUFFS    FAIR      45  43  93 W6        30.15S

$$




USA.gov is the U.S. government's official web portal to all federal, state and local government web resources and services.